Location: Cahas Mountain Overlook
(37.0833°N, 80.1000°W)
Time: 10:02:23
(UTC-05:00)

S-56A Canister/Altair - Pass Details

Date: 04 December 2023
Orbit: 640 x 2488 km, 38.9° (Epoch: 25 February)

Event Time Altitude Azimuth Distance (km) Brightness Sun altitude
Rises 19:05:24 0° 272° (W) 3,514 12.2 -23.8°
Reaches altitude 10° 19:08:36 10° 252° (WSW) 2,821 11.5 -24.4°
Maximum altitude 19:12:56 18° 213° (SSW) 2,650 10.7 -25.3°
Drops below altitude 10° 19:18:18 10° 176° (S) 3,631 11.0 -26.3°
Sets 19:23:19 0° 159° (SSE) 5,017 11.6 -27.3°
